Northeast Philadelphia, PA

4:12 PM EDT on October 16, 2019 (GMT -0400)
Northeast Philadelphia

Weather History for KPNE - August, 2019

Change the Weather History Date:

Thursday, August 15, 2019

  Actual Average Record
Temperature  
Mean Temperature 78 °F -  
Max Temperature 87 °F 83 °F 93 °F (2002)
Min Temperature 72 °F 65 °F 57 °F (2013)
Cooling Degree Days 13    
Growing Degree Days 28 (Base 50)    
Moisture  
Dew Point 68 °F    
Average Humidity 77    
Maximum Humidity 91    
Minimum Humidity 51    
Precipitation  
Precipitation 0.00 in - - ()
Sea Level Pressure  
Sea Level Pressure 29.98 in    
Wind  
Wind Speed 5 mph (ENE)    
Max Wind Speed 14 mph    
Max Gust Speed -    
Visibility 6 miles    
Events Fog    
Averages and records for this station are not official NWS values.
T = Trace of Precipitation, MM = Missing Value Source: NWS Daily Summary

Daily Weather History Graph

Daily Weather History Graph

Search for Another Location

Airport or City:

Astronomy

Aug. 15, 2019 Rise Set
Actual Time 6:11 AM EDT 7:57 PM EDT
Civil Twilight 5:42 AM EDT 8:26 PM EDT
Nautical Twilight 5:06 AM EDT 9:01 PM EDT
Astronomical Twilight 4:29 AM EDT 9:38 PM EDT
Moon 8:24 PM EDT (8/15) 6:03 AM EDT (8/15)
Length of Visible Light 14h 43m
Length of Day
13h 45m
Full, 100% of the Moon is Illuminated
Aug 15
Full
Aug 23
Last Quarter
Aug 30
New
Sep 5
First Quarter
Sep 14
Full

Hourly Weather History & Observations

Time (EDT) Temp. Heat Index Dew Point Humidity Pressure Visibility Wind Dir Wind Speed Gust Speed Precip Events Conditions
12:41 AM 73.9 °F - 70.0 °F 87% 29.94 in 2.5 mi NE 4.6 mph - N/A   Scattered Clouds
12:54 AM 73.9 °F - 71.1 °F 91% 29.94 in 2.0 mi NNE 3.5 mph - N/A   Partly Cloudy
1:29 AM 73.0 °F - 70.0 °F 90% 29.95 in 1.2 mi Calm Calm - N/A   Clear
1:32 AM 73.0 °F - 70.0 °F 90% 29.95 in 0.8 mi NNE 3.5 mph - N/A   Mist
1:54 AM 73.0 °F - 70.0 °F 90% 29.95 in 0.8 mi Calm Calm - N/A   Mist
2:37 AM 73.0 °F - 69.1 °F 87% 29.96 in 1.8 mi Calm Calm - N/A   Mostly Cloudy
2:54 AM 72.0 °F - 69.1 °F 91% 29.95 in 0.5 mi NE 3.5 mph - N/A Fog Fog
3:15 AM 73.0 °F - 70.0 °F 90% 29.96 in 2.0 mi Calm Calm - N/A   Overcast
3:24 AM 73.0 °F - 70.0 °F 90% 29.95 in 4.0 mi NE 3.5 mph - N/A   Overcast
3:54 AM 73.0 °F - 70.0 °F 90% 29.95 in 4.0 mi ENE 3.5 mph - N/A   Overcast
4:34 AM 73.9 °F - 70.0 °F 87% 29.96 in 3.0 mi NE 5.8 mph - N/A   Overcast
4:54 AM 73.0 °F - 69.1 °F 87% 29.94 in 4.0 mi NE 8.1 mph - N/A   Overcast
5:38 AM 73.0 °F - 69.1 °F 87% 29.96 in 4.0 mi NNE 4.6 mph - N/A   Scattered Clouds
5:54 AM 73.0 °F - 68.0 °F 84% 29.95 in 4.0 mi North 8.1 mph - N/A   Haze
6:20 AM 72.0 °F - 68.0 °F 87% 29.96 in 2.5 mi Calm Calm - N/A   Clear
6:44 AM 72.0 °F - 68.0 °F 87% 29.98 in 1.8 mi Calm Calm - N/A   Clear
6:54 AM 72.0 °F - 68.0 °F 87% 29.97 in 1.8 mi Calm Calm - N/A   Clear
7:01 AM 73.0 °F - 68.0 °F 84% 29.98 in 2.0 mi NNE 3.5 mph - N/A   Haze
7:23 AM 73.9 °F - 69.1 °F 85% 29.98 in 3.0 mi NE 6.9 mph - N/A   Haze
7:47 AM 73.9 °F - 69.1 °F 85% 30.00 in 4.0 mi ENE 8.1 mph - N/A   Haze
7:54 AM 73.9 °F - 69.1 °F 85% 30.00 in 4.0 mi ENE 8.1 mph - N/A   Haze
8:30 AM 75.9 °F - 69.1 °F 79% 30.02 in 6.0 mi ENE 8.1 mph - N/A   Haze
8:54 AM 77.0 °F - 69.1 °F 76% 30.01 in 8.0 mi NE 4.6 mph - N/A   Mostly Cloudy
9:30 AM 77.0 °F - 68.0 °F 74% 30.02 in 10.0 mi ESE 8.1 mph - N/A   Overcast
9:54 AM 77.0 °F - 68.0 °F 74% 30.02 in 10.0 mi ENE 8.1 mph - N/A   Overcast
10:54 AM 80.1 °F 82.7 °F 68.0 °F 67% 30.03 in 10.0 mi ENE 4.6 mph - N/A   Overcast
11:18 AM 82.0 °F 84.9 °F 68.0 °F 62% 30.03 in 10.0 mi East 6.9 mph - N/A   Scattered Clouds
11:54 AM 82.9 °F 85.4 °F 66.9 °F 58% 30.01 in 10.0 mi ESE 11.5 mph - N/A   Partly Cloudy
12:54 PM 82.9 °F 85.0 °F 66.0 °F 56% 30.01 in 10.0 mi ESE 9.2 mph - N/A   Clear
1:54 PM 84.9 °F 87.1 °F 66.0 °F 53% 30.00 in 10.0 mi ESE 5.8 mph - N/A   Overcast
2:54 PM 84.9 °F 86.6 °F 64.9 °F 51% 29.98 in 10.0 mi East 6.9 mph - N/A   Partly Cloudy
3:54 PM 84.0 °F 85.4 °F 64.0 °F 51% 29.98 in 10.0 mi ESE 10.4 mph - N/A   Clear
4:54 PM 82.0 °F 83.1 °F 63.0 °F 52% 29.97 in 10.0 mi ESE 13.8 mph - N/A   Clear
5:54 PM 82.9 °F 84.6 °F 64.9 °F 54% 29.99 in 10.0 mi SE 10.4 mph - N/A   Clear
6:54 PM 80.1 °F 82.1 °F 66.0 °F 62% 29.99 in 10.0 mi SE 11.5 mph - N/A   Clear
7:54 PM 77.0 °F - 64.9 °F 66% 29.98 in 10.0 mi SE 11.5 mph - N/A   Clear
8:54 PM 75.0 °F - 66.0 °F 73% 30.00 in 10.0 mi ESE 5.8 mph - N/A   Scattered Clouds
9:54 PM 73.9 °F - 66.0 °F 76% 30.01 in 10.0 mi ESE 8.1 mph - N/A   Clear
10:54 PM 73.9 °F - 66.0 °F 76% 30.03 in 10.0 mi East 8.1 mph - N/A   Clear
11:54 PM 73.0 °F - 66.9 °F 81% 30.04 in 10.0 mi Variable 5.8 mph - N/A   Clear